owner,sensor,date,latitude,longitude,vertical_datum,wind_speed,wind_to_direction,wind_speed_of_gust,qcFlag 
TCOON,ioos:station:TCOON:068:1,2012-08-01T00:00:00Z,27.2970,-97.4049,0.0,8.7,140.0,,'1111122,1111122,1111122' 
TCOON,ioos:station:TCOON:068:1,2012-08-01T01:00:00Z,27.2970,-97.4049,0.0,8.7,140.0,,'1111122,1111122,1111122' 
TCOON,ioos:station:TCOON:068:1,2012-08-01T02:00:00Z,27.2970,-97.4049,0.0,7.7,150.0,,'1111122,1111122,1111122' 
TCOON,ioos:station:TCOON:068:1,2012-08-01T03:00:00Z,27.2970,-97.4049,0.0,6.2,160.0,,'1111122,1111122,1111122' 
TCOON,ioos:station:TCOON:068:1,2012-08-01T04:00:00Z,27.2970,-97.4049,0.0,7.2,160.0,,'1111122,1111122,1111122' 
TCOON,ioos:station:TCOON:068:1,2012-08-01T05:00:00Z,27.2970,-97.4049,0.0,6.2,160.0,,'1111122,1111122,1111122' 
TCOON,ioos:station:TCOON:068:1,2012-08-01T06:00:00Z,27.2970,-97.4049,0.0,6.7,160.0,,'1111122,1111122,1111122' 
TCOON,ioos:station:TCOON:068:1,2012-08-01T07:00:00Z,27.2970,-97.4049,0.0,6.2,170.0,,'1111122,1111122,1111122' 
TCOON,ioos:station:TCOON:068:1,2012-08-01T08:00:00Z,27.2970,-97.4049,0.0,7.7,170.0,,'1111122,1111122,1111122' 
TCOON,ioos:station:TCOON:068:1,2012-08-01T09:00:00Z,27.2970,-97.4049,0.0,7.7,170.0,,'1111122,1111122,1111122' 
TCOON,ioos:station:TCOON:068:1,2012-08-01T10:00:00Z,27.2970,-97.4049,0.0,6.7,180.0,,'1111122,1111122,1111122' 
TCOON,ioos:station:TCOON:068:1,2012-08-01T11:00:00Z,27.2970,-97.4049,0.0,7.7,190.0,,'1111122,1111122,1111122' 
TCOON,ioos:station:TCOON:068:1,2012-08-01T12:00:00Z,27.2970,-97.4049,0.0,6.7,190.0,,'1111122,1111122,1111122' 
TCOON,ioos:station:TCOON:068:1,2012-08-01T13:00:00Z,27.2970,-97.4049,0.0,6.2,175.0,7.5,'11111222,11111222,11111222' 
TCOON,ioos:station:TCOON:068:1,2012-08-01T14:00:00Z,27.2970,-97.4049,0.0,6.2,180.0,,'1111122,1111122,1111122' 
TCOON,ioos:station:TCOON:068:1,2012-08-01T15:00:00Z,27.2970,-97.4049,0.0,7.2,190.0,,'1111122,1111122,1111122' 
TCOON,ioos:station:TCOON:068:1,2012-08-01T16:00:00Z,27.2970,-97.4049,0.0,6.2,180.0,,'1111122,1111122,1111122' 
TCOON,ioos:station:TCOON:068:1,2012-08-01T17:00:00Z,27.2970,-97.4049,0.0,5.7,140.0,,'1111122,1111122,1111122' 
TCOON,ioos:station:TCOON:068:1,2012-08-01T18:00:00Z,27.2970,-97.4049,0.0,7.7,140.0,,'1111122,1111122,1111122' 
TCOON,ioos:station:TCOON:068:1,2012-08-01T19:00:00Z,27.2970,-97.4049,0.0,8.7,140.0,,'1111122,1111122,1111122' 
TCOON,ioos:station:TCOON:068:1,2012-08-01T20:00:00Z,27.2970,-97.4049,0.0,7.7,140.0,,'1111122,1111122,1111122' 
TCOON,ioos:station:TCOON:068:1,2012-08-01T21:00:00Z,27.2970,-97.4049,0.0,8.7,140.0,,'1111122,1111122,1111122' 
TCOON,ioos:station:TCOON:068:1,2012-08-01T22:00:00Z,27.2970,-97.4049,0.0,8.7,140.0,,'1111122,1111122,1111122' 
TCOON,ioos:station:TCOON:068:1,2012-08-01T23:00:00Z,27.2970,-97.4049,0.0,8.7,138.0,11.3,'11111222,11111222,11111222' 
TCOON,ioos:station:TCOON:068:1,2012-08-02T00:00:00Z,27.2970,-97.4049,0.0,8.3,145.0,10.2,'11111222,11111222,11111222' 
TCOON,ioos:station:TCOON:068:1,2012-08-02T01:00:00Z,27.2970,-97.4049,0.0,8.7,150.0,,'1111122,1111122,1111122' 
TCOON,ioos:station:TCOON:068:1,2012-08-02T02:00:00Z,27.2970,-97.4049,0.0,6.7,150.0,,'1111122,1111122,1111122' 
TCOON,ioos:station:TCOON:068:1,2012-08-02T03:00:00Z,27.2970,-97.4049,0.0,7.2,160.0,,'1111122,1111122,1111122' 
TCOON,ioos:station:TCOON:068:1,2012-08-02T04:00:00Z,27.2970,-97.4049,0.0,7.2,160.0,,'1111122,1111122,1111122' 
TCOON,ioos:station:TCOON:068:1,2012-08-02T05:00:00Z,27.2970,-97.4049,0.0,7.7,170.0,,'1111122,1111122,1111122' 
TCOON,ioos:station:TCOON:068:1,2012-08-02T06:00:00Z,27.2970,-97.4049,0.0,8.2,170.0,,'1111122,1111122,1111122' 
TCOON,ioos:station:TCOON:068:1,2012-08-02T07:00:00Z,27.2970,-97.4049,0.0,8.2,170.0,,'1111122,1111122,1111122' 
TCOON,ioos:station:TCOON:068:1,2012-08-02T08:00:00Z,27.2970,-97.4049,0.0,6.2,170.0,,'1111122,1111122,1111122' 
TCOON,ioos:station:TCOON:068:1,2012-08-02T09:00:00Z,27.2970,-97.4049,0.0,5.1,170.0,,'1111122,1111122,1111122' 
TCOON,ioos:station:TCOON:068:1,2012-08-02T10:00:00Z,27.2970,-97.4049,0.0,7.7,180.0,,'1111122,1111122,1111122' 
TCOON,ioos:station:TCOON:068:1,2012-08-02T11:00:00Z,27.2970,-97.4049,0.0,5.7,170.0,,'1111122,1111122,1111122' 
TCOON,ioos:station:TCOON:068:1,2012-08-02T12:00:00Z,27.2970,-97.4049,0.0,5.1,160.0,,'1111122,1111122,1111122' 
TCOON,ioos:station:TCOON:068:1,2012-08-02T13:00:00Z,27.2970,-97.4049,0.0,5.7,170.0,,'1111122,1111122,1111122' 
TCOON,ioos:station:TCOON:068:1,2012-08-02T14:00:00Z,27.2970,-97.4049,0.0,6.2,170.0,,'1111122,1111122,1111122' 
TCOON,ioos:station:TCOON:068:1,2012-08-02T15:00:00Z,27.2970,-97.4049,0.0,5.1,170.0,,'1111122,1111122,1111122' 
TCOON,ioos:station:TCOON:068:1,2012-08-02T16:00:00Z,27.2970,-97.4049,0.0,6.7,160.0,,'1111122,1111122,1111122' 
TCOON,ioos:station:TCOON:068:1,2012-08-02T17:00:00Z,27.2970,-97.4049,0.0,8.7,150.0,,'1111122,1111122,1111122' 
TCOON,ioos:station:TCOON:068:1,2012-08-02T18:00:00Z,27.2970,-97.4049,0.0,9.3,150.0,,'1111122,1111122,1111122' 
TCOON,ioos:station:TCOON:068:1,2012-08-02T19:00:00Z,27.2970,-97.4049,0.0,8.9,135.0,11.5,'11111222,11111222,11111222' 
TCOON,ioos:station:TCOON:068:1,2012-08-02T20:00:00Z,27.2970,-97.4049,0.0,7.8,135.0,11.3,'11111222,11111222,11111222' 
TCOON,ioos:station:TCOON:068:1,2012-08-02T21:00:00Z,27.2970,-97.4049,0.0,9.0,132.0,11.1,'11111222,11111222,11111222' 
TCOON,ioos:station:TCOON:068:1,2012-08-02T22:00:00Z,27.2970,-97.4049,0.0,9.1,137.0,12.4,'11111222,11111222,11111222' 
TCOON,ioos:station:TCOON:068:1,2012-08-02T23:00:00Z,27.2970,-97.4049,0.0,9.7,134.0,11.6,'11111222,11111222,11111222' 
TCOON,ioos:station:TCOON:068:1,2012-08-03T00:00:00Z,27.2970,-97.4049,0.0,8.9,139.0,11.2,'11111222,11111222,11111222' 
TCOON,ioos:station:TCOON:068:1,2012-08-03T01:00:00Z,27.2970,-97.4049,0.0,7.8,143.0,9.4,'11111222,11111222,11111222' 
TCOON,ioos:station:TCOON:068:1,2012-08-03T02:00:00Z,27.2970,-97.4049,0.0,6.6,145.0,8.2,'11111222,11111222,11111222' 
TCOON,ioos:station:TCOON:068:1,2012-08-03T03:00:00Z,27.2970,-97.4049,0.0,6.1,154.0,8.5,'11111222,11111222,11111222' 
TCOON,ioos:station:TCOON:068:1,2012-08-03T04:00:00Z,27.2970,-97.4049,0.0,6.7,158.0,8.3,'11111222,11111222,11111222' 
TCOON,ioos:station:TCOON:068:1,2012-08-03T05:00:00Z,27.2970,-97.4049,0.0,6.2,162.0,7.5,'11111222,11111222,11111222' 
TCOON,ioos:station:TCOON:068:1,2012-08-03T06:00:00Z,27.2970,-97.4049,0.0,7.6,164.0,8.9,'11111222,11111222,11111222' 
TCOON,ioos:station:TCOON:068:1,2012-08-03T07:00:00Z,27.2970,-97.4049,0.0,6.3,165.0,8.1,'11111222,11111222,11111222' 
TCOON,ioos:station:TCOON:068:1,2012-08-03T08:00:00Z,27.2970,-97.4049,0.0,7.8,169.0,9.5,'11111222,11111222,11111222' 
TCOON,ioos:station:TCOON:068:1,2012-08-03T09:00:00Z,27.2970,-97.4049,0.0,5.4,177.0,7.8,'11111222,11111222,11111222' 
TCOON,ioos:station:TCOON:068:1,2012-08-03T10:00:00Z,27.2970,-97.4049,0.0,5.3,162.0,7.0,'11111222,11111222,11111222' 
TCOON,ioos:station:TCOON:068:1,2012-08-03T11:00:00Z,27.2970,-97.4049,0.0,4.7,156.0,6.0,'11111222,11111222,11111222' 
TCOON,ioos:station:TCOON:068:1,2012-08-03T12:00:00Z,27.2970,-97.4049,0.0,4.0,159.0,4.8,'11111222,11111222,11111222' 
TCOON,ioos:station:TCOON:068:1,2012-08-03T13:00:00Z,27.2970,-97.4049,0.0,3.1,163.0,3.9,'11111222,11111222,11111222' 
TCOON,ioos:station:TCOON:068:1,2012-08-03T14:00:00Z,27.2970,-97.4049,0.0,4.9,168.0,5.8,'11111222,11111222,11111222' 
TCOON,ioos:station:TCOON:068:1,2012-08-03T15:00:00Z,27.2970,-97.4049,0.0,5.9,163.0,7.5,'11111222,11111222,11111222' 
TCOON,ioos:station:TCOON:068:1,2012-08-03T16:00:00Z,27.2970,-97.4049,0.0,6.0,154.0,7.5,'11111222,11111222,11111222' 
TCOON,ioos:station:TCOON:068:1,2012-08-03T17:00:00Z,27.2970,-97.4049,0.0,6.9,137.0,8.6,'11111222,11111222,11111222' 
TCOON,ioos:station:TCOON:068:1,2012-08-03T18:00:00Z,27.2970,-97.4049,0.0,7.1,134.0,9.3,'11111222,11111222,11111222' 
TCOON,ioos:station:TCOON:068:1,2012-08-03T19:00:00Z,27.2970,-97.4049,0.0,7.4,132.0,10.1,'11111222,11111222,11111222' 
TCOON,ioos:station:TCOON:068:1,2012-08-03T20:00:00Z,27.2970,-97.4049,0.0,7.8,127.0,10.9,'11111222,11111222,11111222' 
TCOON,ioos:station:TCOON:068:1,2012-08-03T21:00:00Z,27.2970,-97.4049,0.0,9.4,133.0,11.7,'11111222,11111222,11111222' 
TCOON,ioos:station:TCOON:068:1,2012-08-03T22:00:00Z,27.2970,-97.4049,0.0,9.6,135.0,11.2,'11111222,11111222,11111222' 
TCOON,ioos:station:TCOON:068:1,2012-08-03T23:00:00Z,27.2970,-97.4049,0.0,7.7,128.0,10.3,'11111222,11111222,11111222' 
TCOON,ioos:station:TCOON:068:1,2012-08-04T00:00:00Z,27.2970,-97.4049,0.0,8.3,135.0,10.7,'11111222,11111222,11111222' 
TCOON,ioos:station:TCOON:068:1,2012-08-04T01:00:00Z,27.2970,-97.4049,0.0,6.5,132.0,9.3,'11111222,11111222,11111222' 
TCOON,ioos:station:TCOON:068:1,2012-08-04T02:00:00Z,27.2970,-97.4049,0.0,6.1,138.0,8.3,'11111222,11111222,11111222' 
TCOON,ioos:station:TCOON:068:1,2012-08-04T03:00:00Z,27.2970,-97.4049,0.0,5.4,140.0,7.4,'11111222,11111222,11111222' 
TCOON,ioos:station:TCOON:068:1,2012-08-04T04:00:00Z,27.2970,-97.4049,0.0,6.7,143.0,8.3,'11111222,11111222,11111222' 
TCOON,ioos:station:TCOON:068:1,2012-08-04T05:00:00Z,27.2970,-97.4049,0.0,5.6,146.0,6.9,'11111222,11111222,11111222' 
TCOON,ioos:station:TCOON:068:1,2012-08-04T06:00:00Z,27.2970,-97.4049,0.0,6.2,158.0,7.5,'11111222,11111222,11111222' 
TCOON,ioos:station:TCOON:068:1,2012-08-04T07:00:00Z,27.2970,-97.4049,0.0,5.9,159.0,6.8,'11111222,11111222,11111222' 
TCOON,ioos:station:TCOON:068:1,2012-08-04T08:00:00Z,27.2970,-97.4049,0.0,4.7,158.0,6.3,'11111222,11111222,11111222' 
TCOON,ioos:station:TCOON:068:1,2012-08-04T09:00:00Z,27.2970,-97.4049,0.0,5.2,159.0,6.4,'11111222,11111222,11111222' 
TCOON,ioos:station:TCOON:068:1,2012-08-04T10:00:00Z,27.2970,-97.4049,0.0,5.0,163.0,5.9,'11111222,11111222,11111222' 
TCOON,ioos:station:TCOON:068:1,2012-08-04T11:00:00Z,27.2970,-97.4049,0.0,5.0,160.0,5.8,'11111222,11111222,11111222' 
TCOON,ioos:station:TCOON:068:1,2012-08-04T12:00:00Z,27.2970,-97.4049,0.0,4.9,154.0,5.6,'11111222,11111222,11111222' 
TCOON,ioos:station:TCOON:068:1,2012-08-04T13:00:00Z,27.2970,-97.4049,0.0,4.8,153.0,6.3,'11111222,11111222,11111222' 
TCOON,ioos:station:TCOON:068:1,2012-08-04T14:00:00Z,27.2970,-97.4049,0.0,5.6,152.0,6.9,'11111222,11111222,11111222' 
TCOON,ioos:station:TCOON:068:1,2012-08-04T15:00:00Z,27.2970,-97.4049,0.0,5.9,151.0,7.7,'11111222,11111222,11111222' 
TCOON,ioos:station:TCOON:068:1,2012-08-04T16:00:00Z,27.2970,-97.4049,0.0,6.5,137.0,7.7,'11111222,11111222,11111222' 
TCOON,ioos:station:TCOON:068:1,2012-08-04T17:00:00Z,27.2970,-97.4049,0.0,6.2,143.0,8.8,'11111222,11111222,11111222' 
TCOON,ioos:station:TCOON:068:1,2012-08-04T18:00:00Z,27.2970,-97.4049,0.0,6.2,132.0,8.2,'11111222,11111222,11111222' 
TCOON,ioos:station:TCOON:068:1,2012-08-04T19:00:00Z,27.2970,-97.4049,0.0,7.7,119.0,9.3,'11111222,11111222,11111222' 
TCOON,ioos:station:TCOON:068:1,2012-08-04T20:00:00Z,27.2970,-97.4049,0.0,7.9,121.0,11.2,'11111222,11111222,11111222' 
TCOON,ioos:station:TCOON:068:1,2012-08-04T21:00:00Z,27.2970,-97.4049,0.0,9.0,128.0,11.0,'11111222,11111222,11111222' 
TCOON,ioos:station:TCOON:068:1,2012-08-04T22:00:00Z,27.2970,-97.4049,0.0,8.8,132.0,10.9,'11111222,11111222,11111222' 
TCOON,ioos:station:TCOON:068:1,2012-08-04T23:00:00Z,27.2970,-97.4049,0.0,7.4,126.0,10.4,'11111222,11111222,11111222' 
TCOON,ioos:station:TCOON:068:1,2012-08-05T00:00:00Z,27.2970,-97.4049,0.0,8.1,137.0,9.3,'11111222,11111222,11111222' 
TCOON,ioos:station:TCOON:068:1,2012-08-05T01:00:00Z,27.2970,-97.4049,0.0,6.4,131.0,8.5,'11111222,11111222,11111222' 
TCOON,ioos:station:TCOON:068:1,2012-08-05T02:00:00Z,27.2970,-97.4049,0.0,5.7,139.0,7.5,'11111222,11111222,11111222' 
TCOON,ioos:station:TCOON:068:1,2012-08-05T03:00:00Z,27.2970,-97.4049,0.0,5.2,133.0,7.4,'11111222,11111222,11111222' 
TCOON,ioos:station:TCOON:068:1,2012-08-05T04:00:00Z,27.2970,-97.4049,0.0,4.7,131.0,5.6,'11111222,11111222,11111222' 
TCOON,ioos:station:TCOON:068:1,2012-08-05T05:00:00Z,27.2970,-97.4049,0.0,4.7,137.0,5.5,'11111222,11111222,11111222' 
TCOON,ioos:station:TCOON:068:1,2012-08-05T06:00:00Z,27.2970,-97.4049,0.0,4.2,137.0,6.0,'11111222,11111222,11111222' 
TCOON,ioos:station:TCOON:068:1,2012-08-05T07:00:00Z,27.2970,-97.4049,0.0,3.7,152.0,5.2,'11111222,11111222,11111222' 
TCOON,ioos:station:TCOON:068:1,2012-08-05T08:00:00Z,27.2970,-97.4049,0.0,4.1,144.0,5.3,'11111222,11111222,11111222' 
TCOON,ioos:station:TCOON:068:1,2012-08-05T09:00:00Z,27.2970,-97.4049,0.0,4.4,138.0,5.9,'11111222,11111222,11111222' 
TCOON,ioos:station:TCOON:068:1,2012-08-05T10:00:00Z,27.2970,-97.4049,0.0,4.2,139.0,5.6,'11111222,11111222,11111222' 
TCOON,ioos:station:TCOON:068:1,2012-08-05T11:00:00Z,27.2970,-97.4049,0.0,3.5,150.0,5.3,'11111222,11111222,11111222' 
TCOON,ioos:station:TCOON:068:1,2012-08-05T12:00:00Z,27.2970,-97.4049,0.0,3.4,138.0,4.1,'11111222,11111222,11111222' 
TCOON,ioos:station:TCOON:068:1,2012-08-05T13:00:00Z,27.2970,-97.4049,0.0,2.4,94.0,2.7,'11111222,11111222,11111222' 
TCOON,ioos:station:TCOON:068:1,2012-08-05T14:00:00Z,27.2970,-97.4049,0.0,3.3,121.0,3.8,'11111222,11111222,11111222' 
TCOON,ioos:station:TCOON:068:1,2012-08-05T15:00:00Z,27.2970,-97.4049,0.0,3.4,131.0,4.5,'11111222,11111222,11111222' 
TCOON,ioos:station:TCOON:068:1,2012-08-05T16:00:00Z,27.2970,-97.4049,0.0,4.4,102.0,5.2,'11111222,11111222,11111222' 
TCOON,ioos:station:TCOON:068:1,2012-08-05T17:00:00Z,27.2970,-97.4049,0.0,4.3,96.0,5.1,'11111222,11111222,11111222' 
TCOON,ioos:station:TCOON:068:1,2012-08-05T18:00:00Z,27.2970,-97.4049,0.0,5.5,87.0,6.2,'11111222,11111222,11111222' 
TCOON,ioos:station:TCOON:068:1,2012-08-05T19:00:00Z,27.2970,-97.4049,0.0,5.7,78.0,6.7,'11111222,11111222,11111222' 
TCOON,ioos:station:TCOON:068:1,2012-08-05T20:00:00Z,27.2970,-97.4049,0.0,7.0,75.0,7.8,'11111222,11111222,11111222' 
TCOON,ioos:station:TCOON:068:1,2012-08-05T21:00:00Z,27.2970,-97.4049,0.0,7.9,72.0,9.1,'11111222,11111222,11111222' 
TCOON,ioos:station:TCOON:068:1,2012-08-05T22:00:00Z,27.2970,-97.4049,0.0,9.1,79.0,10.8,'11111222,11111222,11111222' 
TCOON,ioos:station:TCOON:068:1,2012-08-05T23:00:00Z,27.2970,-97.4049,0.0,8.5,75.0,10.2,'11111222,11111222,11111222' 
TCOON,ioos:station:TCOON:068:1,2012-08-06T00:00:00Z,27.2970,-97.4049,0.0,8.3,82.0,9.3,'11111222,11111222,11111222' 
TCOON,ioos:station:TCOON:068:1,2012-08-06T01:00:00Z,27.2970,-97.4049,0.0,6.3,79.0,7.9,'11111222,11111222,11111222' 
TCOON,ioos:station:TCOON:068:1,2012-08-06T02:00:00Z,27.2970,-97.4049,0.0,4.5,100.0,6.5,'11111222,11111222,11111222' 
TCOON,ioos:station:TCOON:068:1,2012-08-06T03:00:00Z,27.2970,-97.4049,0.0,3.3,96.0,4.3,'11111222,11111222,11111222' 
TCOON,ioos:station:TCOON:068:1,2012-08-06T04:00:00Z,27.2970,-97.4049,0.0,5.4,116.0,6.2,'11111222,11111222,11111222' 
TCOON,ioos:station:TCOON:068:1,2012-08-06T05:00:00Z,27.2970,-97.4049,0.0,2.3,116.0,3.6,'11111222,11111222,11111222' 
TCOON,ioos:station:TCOON:068:1,2012-08-06T06:00:00Z,27.2970,-97.4049,0.0,1.7,129.0,2.7,'11111222,11111222,11111222' 
TCOON,ioos:station:TCOON:068:1,2012-08-06T07:00:00Z,27.2970,-97.4049,0.0,2.2,134.0,2.8,'11111222,11111222,11111222' 
TCOON,ioos:station:TCOON:068:1,2012-08-06T08:00:00Z,27.2970,-97.4049,0.0,2.6,161.0,3.2,'11111222,11111222,11111222' 
TCOON,ioos:station:TCOON:068:1,2012-08-06T09:00:00Z,27.2970,-97.4049,0.0,2.7,169.0,3.4,'11111222,11111222,11111222' 
TCOON,ioos:station:TCOON:068:1,2012-08-06T10:00:00Z,27.2970,-97.4049,0.0,2.4,169.0,2.7,'11111222,11111222,11111222' 
TCOON,ioos:station:TCOON:068:1,2012-08-06T11:00:00Z,27.2970,-97.4049,0.0,1.7,174.0,2.0,'11111222,11111222,11111222' 
TCOON,ioos:station:TCOON:068:1,2012-08-06T12:00:00Z,27.2970,-97.4049,0.0,1.6,167.0,2.2,'11111222,11111222,11111222' 
TCOON,ioos:station:TCOON:068:1,2012-08-06T13:00:00Z,27.2970,-97.4049,0.0,0.3,40.0,0.5,'11111222,11111222,11111222' 
TCOON,ioos:station:TCOON:068:1,2012-08-06T14:00:00Z,27.2970,-97.4049,0.0,2.1,33.0,2.8,'11111222,11111222,11111222' 
TCOON,ioos:station:TCOON:068:1,2012-08-06T15:00:00Z,27.2970,-97.4049,0.0,1.2,67.0,1.4,'11111222,11111222,11111222' 
TCOON,ioos:station:TCOON:068:1,2012-08-06T16:00:00Z,27.2970,-97.4049,0.0,2.2,247.0,2.6,'11111222,11111222,11111222' 
TCOON,ioos:station:TCOON:068:1,2012-08-06T17:00:00Z,27.2970,-97.4049,0.0,1.9,123.0,2.4,'11111222,11111222,11111222' 
TCOON,ioos:station:TCOON:068:1,2012-08-06T18:00:00Z,27.2970,-97.4049,0.0,1.5,8.0,2.1,'11111222,11111222,11111222' 
TCOON,ioos:station:TCOON:068:1,2012-08-06T19:00:00Z,27.2970,-97.4049,0.0,2.5,97.0,3.5,'11111222,11111222,11111222' 
TCOON,ioos:station:TCOON:068:1,2012-08-06T20:00:00Z,27.2970,-97.4049,0.0,4.7,115.0,5.8,'11111222,11111222,11111222' 
TCOON,ioos:station:TCOON:068:1,2012-08-06T21:00:00Z,27.2970,-97.4049,0.0,6.5,100.0,7.5,'11111222,11111222,11111222' 
TCOON,ioos:station:TCOON:068:1,2012-08-06T22:00:00Z,27.2970,-97.4049,0.0,4.4,118.0,6.0,'11111222,11111222,11111222' 
TCOON,ioos:station:TCOON:068:1,2012-08-06T23:00:00Z,27.2970,-97.4049,0.0,6.4,107.0,7.3,'11111222,11111222,11111222' 
TCOON,ioos:station:TCOON:068:1,2012-08-07T00:00:00Z,27.2970,-97.4049,0.0,6.7,113.0,7.7,'11111222,11111222,11111222' 
TCOON,ioos:station:TCOON:068:1,2012-08-07T01:00:00Z,27.2970,-97.4049,0.0,5.2,134.0,7.3,'11111222,11111222,11111222' 
TCOON,ioos:station:TCOON:068:1,2012-08-07T02:00:00Z,27.2970,-97.4049,0.0,5.7,140.0,6.4,'11111222,11111222,11111222' 
TCOON,ioos:station:TCOON:068:1,2012-08-07T03:00:00Z,27.2970,-97.4049,0.0,4.7,135.0,5.5,'11111222,11111222,11111222' 
TCOON,ioos:station:TCOON:068:1,2012-08-07T04:00:00Z,27.2970,-97.4049,0.0,3.3,151.0,4.9,'11111222,11111222,11111222' 
TCOON,ioos:station:TCOON:068:1,2012-08-07T05:00:00Z,27.2970,-97.4049,0.0,4.0,153.0,5.1,'11111222,11111222,11111222' 
TCOON,ioos:station:TCOON:068:1,2012-08-07T06:00:00Z,27.2970,-97.4049,0.0,3.6,162.0,4.5,'11111222,11111222,11111222' 
TCOON,ioos:station:TCOON:068:1,2012-08-07T07:00:00Z,27.2970,-97.4049,0.0,5.1,169.0,6.3,'11111222,11111222,11111222' 
TCOON,ioos:station:TCOON:068:1,2012-08-07T08:00:00Z,27.2970,-97.4049,0.0,4.1,186.0,5.1,'11111222,11111222,11111222' 
TCOON,ioos:station:TCOON:068:1,2012-08-07T09:00:00Z,27.2970,-97.4049,0.0,4.7,207.0,5.3,'11111222,11111222,11111222' 
TCOON,ioos:station:TCOON:068:1,2012-08-07T10:00:00Z,27.2970,-97.4049,0.0,3.1,203.0,3.7,'11111222,11111222,11111222' 
TCOON,ioos:station:TCOON:068:1,2012-08-07T11:00:00Z,27.2970,-97.4049,0.0,2.6,202.0,3.1,'11111222,11111222,11111222' 
TCOON,ioos:station:TCOON:068:1,2012-08-07T12:00:00Z,27.2970,-97.4049,0.0,2.7,202.0,3.3,'11111222,11111222,11111222' 
TCOON,ioos:station:TCOON:068:1,2012-08-07T13:00:00Z,27.2970,-97.4049,0.0,2.2,220.0,2.6,'11111222,11111222,11111222' 
TCOON,ioos:station:TCOON:068:1,2012-08-07T14:00:00Z,27.2970,-97.4049,0.0,1.5,217.0,1.9,'11111222,11111222,11111222' 
TCOON,ioos:station:TCOON:068:1,2012-08-07T15:00:00Z,27.2970,-97.4049,0.0,0.1,214.0,0.8,'11111222,11111222,11111222' 
TCOON,ioos:station:TCOON:068:1,2012-08-07T16:00:00Z,27.2970,-97.4049,0.0,1.4,85.0,1.8,'11111222,11111222,11111222' 
TCOON,ioos:station:TCOON:068:1,2012-08-07T17:00:00Z,27.2970,-97.4049,0.0,2.3,187.0,3.3,'11111222,11111222,11111222' 
TCOON,ioos:station:TCOON:068:1,2012-08-07T18:00:00Z,27.2970,-97.4049,0.0,4.5,112.0,5.6,'11111222,11111222,11111222' 
TCOON,ioos:station:TCOON:068:1,2012-08-07T19:00:00Z,27.2970,-97.4049,0.0,4.6,112.0,5.6,'11111222,11111222,11111222' 
TCOON,ioos:station:TCOON:068:1,2012-08-07T20:00:00Z,27.2970,-97.4049,0.0,5.3,123.0,6.5,'11111222,11111222,11111222' 
TCOON,ioos:station:TCOON:068:1,2012-08-07T21:00:00Z,27.2970,-97.4049,0.0,5.8,94.0,6.8,'11111222,11111222,11111222' 
TCOON,ioos:station:TCOON:068:1,2012-08-07T22:00:00Z,27.2970,-97.4049,0.0,6.8,114.0,7.9,'11111222,11111222,11111222' 
TCOON,ioos:station:TCOON:068:1,2012-08-07T23:00:00Z,27.2970,-97.4049,0.0,5.4,123.0,7.0,'11111222,11111222,11111222' 
TCOON,ioos:station:TCOON:068:1,2012-08-08T00:00:00Z,27.2970,-97.4049,0.0,5.9,118.0,7.1,'11111222,11111222,11111222' 
TCOON,ioos:station:TCOON:068:1,2012-08-08T01:00:00Z,27.2970,-97.4049,0.0,5.8,113.0,6.8,'11111222,11111222,11111222' 
TCOON,ioos:station:TCOON:068:1,2012-08-08T02:00:00Z,27.2970,-97.4049,0.0,5.5,113.0,7.0,'11111222,11111222,11111222' 
TCOON,ioos:station:TCOON:068:1,2012-08-08T03:00:00Z,27.2970,-97.4049,0.0,5.5,128.0,6.8,'11111222,11111222,11111222' 
TCOON,ioos:station:TCOON:068:1,2012-08-08T04:00:00Z,27.2970,-97.4049,0.0,4.8,134.0,6.4,'11111222,11111222,11111222' 
TCOON,ioos:station:TCOON:068:1,2012-08-08T05:00:00Z,27.2970,-97.4049,0.0,5.0,136.0,6.3,'11111222,11111222,11111222' 
TCOON,ioos:station:TCOON:068:1,2012-08-08T06:00:00Z,27.2970,-97.4049,0.0,4.8,155.0,6.4,'11111222,11111222,11111222' 
TCOON,ioos:station:TCOON:068:1,2012-08-08T07:00:00Z,27.2970,-97.4049,0.0,5.2,164.0,6.9,'11111222,11111222,11111222' 
TCOON,ioos:station:TCOON:068:1,2012-08-08T08:00:00Z,27.2970,-97.4049,0.0,6.2,170.0,7.2,'11111222,11111222,11111222' 
TCOON,ioos:station:TCOON:068:1,2012-08-08T09:00:00Z,27.2970,-97.4049,0.0,5.2,172.0,6.9,'11111222,11111222,11111222' 
TCOON,ioos:station:TCOON:068:1,2012-08-08T10:00:00Z,27.2970,-97.4049,0.0,5.0,166.0,6.4,'11111222,11111222,11111222' 
TCOON,ioos:station:TCOON:068:1,2012-08-08T11:00:00Z,27.2970,-97.4049,0.0,3.1,163.0,4.0,'11111222,11111222,11111222' 
TCOON,ioos:station:TCOON:068:1,2012-08-08T12:00:00Z,27.2970,-97.4049,0.0,1.2,169.0,1.6,'11111222,11111222,11111222' 
TCOON,ioos:station:TCOON:068:1,2012-08-08T13:00:00Z,27.2970,-97.4049,0.0,1.2,164.0,1.5,'11111222,11111222,11111222' 
TCOON,ioos:station:TCOON:068:1,2012-08-08T14:00:00Z,27.2970,-97.4049,0.0,1.5,164.0,1.8,'11111222,11111222,11111222' 
TCOON,ioos:station:TCOON:068:1,2012-08-08T15:00:00Z,27.2970,-97.4049,0.0,1.3,207.0,1.5,'11111222,11111222,11111222' 
TCOON,ioos:station:TCOON:068:1,2012-08-08T16:00:00Z,27.2970,-97.4049,0.0,2.9,129.0,3.8,'11111222,11111222,11111222' 
TCOON,ioos:station:TCOON:068:1,2012-08-08T17:00:00Z,27.2970,-97.4049,0.0,3.5,119.0,4.6,'11111222,11111222,11111222' 
TCOON,ioos:station:TCOON:068:1,2012-08-08T18:00:00Z,27.2970,-97.4049,0.0,4.9,119.0,6.0,'11111222,11111222,11111222' 
TCOON,ioos:station:TCOON:068:1,2012-08-08T19:00:00Z,27.2970,-97.4049,0.0,5.0,122.0,6.2,'11111222,11111222,11111222' 
TCOON,ioos:station:TCOON:068:1,2012-08-08T20:00:00Z,27.2970,-97.4049,0.0,5.5,106.0,6.9,'11111222,11111222,11111222' 
TCOON,ioos:station:TCOON:068:1,2012-08-08T21:00:00Z,27.2970,-97.4049,0.0,7.0,103.0,8.5,'11111222,11111222,11111222' 
TCOON,ioos:station:TCOON:068:1,2012-08-08T22:00:00Z,27.2970,-97.4049,0.0,6.9,109.0,9.0,'11111222,11111222,11111222' 
TCOON,ioos:station:TCOON:068:1,2012-08-08T23:00:00Z,27.2970,-97.4049,0.0,7.6,114.0,9.8,'11111222,11111222,11111222' 
TCOON,ioos:station:TCOON:068:1,2012-08-09T00:00:00Z,27.2970,-97.4049,0.0,6.8,117.0,9.7,'11111222,11111222,11111222' 
TCOON,ioos:station:TCOON:068:1,2012-08-09T01:00:00Z,27.2970,-97.4049,0.0,6.1,128.0,7.4,'11111222,11111222,11111222' 
TCOON,ioos:station:TCOON:068:1,2012-08-09T02:00:00Z,27.2970,-97.4049,0.0,6.4,136.0,7.6,'11111222,11111222,11111222' 
TCOON,ioos:station:TCOON:068:1,2012-08-09T03:00:00Z,27.2970,-97.4049,0.0,5.1,142.0,6.0,'11111222,11111222,11111222' 
TCOON,ioos:station:TCOON:068:1,2012-08-09T04:00:00Z,27.2970,-97.4049,0.0,4.7,141.0,5.9,'11111222,11111222,11111222' 
TCOON,ioos:station:TCOON:068:1,2012-08-09T05:00:00Z,27.2970,-97.4049,0.0,4.4,151.0,5.6,'11111222,11111222,11111222' 
TCOON,ioos:station:TCOON:068:1,2012-08-09T06:00:00Z,27.2970,-97.4049,0.0,5.1,149.0,6.2,'11111222,11111222,11111222' 
TCOON,ioos:station:TCOON:068:1,2012-08-09T07:00:00Z,27.2970,-97.4049,0.0,4.4,158.0,5.7,'11111222,11111222,11111222' 
TCOON,ioos:station:TCOON:068:1,2012-08-09T08:00:00Z,27.2970,-97.4049,0.0,4.0,156.0,5.3,'11111222,11111222,11111222' 
TCOON,ioos:station:TCOON:068:1,2012-08-09T09:00:00Z,27.2970,-97.4049,0.0,3.0,160.0,3.6,'11111222,11111222,11111222' 
TCOON,ioos:station:TCOON:068:1,2012-08-09T10:00:00Z,27.2970,-97.4049,0.0,3.7,158.0,4.4,'11111222,11111222,11111222' 
TCOON,ioos:station:TCOON:068:1,2012-08-09T11:00:00Z,27.2970,-97.4049,0.0,2.3,151.0,2.8,'11111222,11111222,11111222' 
TCOON,ioos:station:TCOON:068:1,2012-08-09T12:00:00Z,27.2970,-97.4049,0.0,2.0,144.0,2.8,'11111222,11111222,11111222' 
TCOON,ioos:station:TCOON:068:1,2012-08-09T13:00:00Z,27.2970,-97.4049,0.0,1.1,126.0,1.5,'11111222,11111222,11111222' 